星链-5109 (STARLINK-5109 )

导读

STARLINK-5109是美国SpaceX公司星链(Starlink)项目的低轨通信卫星,于2022年10月5日发射入轨,属于星链大规模星座组网的组成部分。星链项目计划通过数万颗低轨卫星构建全球覆盖的高速卫星互联网,可为偏远地区、应急场景提供宽带网络服务。STARLINK-5109承担为全球用户提供低延迟宽带接入的任务,助力星链实现全球无缝网络覆盖的目标,不过这类低轨卫星的大规模部署也引发太空轨道安全等领域的争议。

基本信息
目录编号:
54002
目录名称:
STARLINK-5109
国际标识:
2022-125AQ
轨道中心:
EARTH
卫星名称:
星链-5109
卫星全名:
星链-5109 (STARLINK-5109 )
卫星状态:
在轨 (已飞行1349 天)
发射日期:
2022-10-05 UTC
国别 :
美国 (US)
星等 :
--
轨道信息
数据来源 国际轨道数据 AOE轨道数据
星历时间 2026-06-15T06:00:03+0800
9小时前
查看轨道信息
2026-06-10T06:00:00+0800
5天前
查看轨道信息
半长轴 6897.187km 6917.908km
偏心率 0.000222 0.0001756
轨道倾角 53.161° 53.161°
近地点辐角 53.888° 109.289°
升交点赤经 127.215° 149.783°
平近点角 34.475° 120.678°
近地点 517.518km 538.556km
远地点 520.582km 540.986km
周期 95.010分钟 95.438分钟
每日圈数 15.156358 15.08831
详细信息
固有亮度:
5
最大亮度:
2.5
卫星平台:
Starlink v1.5
覆盖范围:
全球
运营商:
太空探索技术公司
运营商所在国:
美国
制造商(研发单位):
太空探索技术公司
制造商所在国:
美国
使用方式:
暂无
卫星简介
星链(Starlink)计划是由太空探索技术公司(SpaceX)提出的一个巨型低轨卫星互联网星座项目,计划在2019年至2024年间在太空搭建由约1.2万颗卫星组成的“星链”网络,其中1584颗将部署在地球上空550千米处的近地轨道,并从2020年开始工作。该卫星仍在工作。
2D轨道图
3D轨道图
轨道高度分析图
轨道倾角分析图
轨道综合分析图
查看轨道综合分析图